EDT,Max TemperatureF,Mean TemperatureF,Min TemperatureF,Max Dew PointF,MeanDew PointF,Min DewpointF,Max Humidity, Mean Humidity, Min Humidity, Max Sea Level PressureIn, Mean Sea Level PressureIn, Min Sea Level PressureIn, Max VisibilityMiles, Mean VisibilityMiles, Min VisibilityMiles, Max Wind SpeedMPH, Mean Wind SpeedMPH, Max Gust SpeedMPH,PrecipitationIn, CloudCover, Events, WindDirDegrees
2013-10-1,82,68,53,63,58,54,100,80,39,30.14,30.09,30.05,10,8,0,8,1,,0.00,3,Fog,222
2013-10-2,86,70,55,68,61,54,100,80,45,30.17,30.11,30.07,10,9,5,6,0,,0.00,2,,215
2013-10-3,86,74,62,72,65,61,100,87,51,30.13,30.09,30.05,10,8,4,7,1,,0.00,3,Rain,236
2013-10-4,87,73,59,68,64,59,100,80,43,30.16,30.10,30.07,10,7,0,10,1,,0.00,3,Fog,220
2013-10-5,86,74,62,72,66,63,100,81,55,30.12,30.07,29.99,10,9,5,9,1,,0.00,2,Rain,225
2013-10-6,87,76,62,68,63,59,100,69,40,29.99,29.88,29.76,10,9,4,17,2,22,0.00,3,Rain,202
2013-10-7,66,56,46,59,48,43,100,76,45,30.18,29.99,29.84,10,9,3,12,4,21,0.00,5,Rain,256
2013-10-8,69,55,41,52,45,41,100,77,35,30.31,30.24,30.18,10,8,0,12,2,9,0.00,2,Fog,74
2013-10-9,73,57,41,50,43,36,100,71,25,30.30,30.24,30.19,10,10,5,8,1,,0.00,0,,88
2013-10-10,77,60,42,57,48,43,100,76,38,30.21,30.15,30.07,10,10,10,4,0,,0.00,1,,90
2013-10-11,78,61,44,59,52,45,100,75,39,30.11,30.07,30.02,10,10,1,9,1,,0.00,3,,50
2013-10-12,64,60,55,57,56,54,100,84,77,30.17,30.12,30.06,10,10,7,6,0,,0.00,7,,194
2013-10-13,73,66,59,64,61,57,100,90,65,30.28,30.23,30.16,10,5,1,6,0,,0.00,8,Rain,251
2013-10-14,68,64,59,63,59,55,100,88,78,30.32,30.27,30.22,10,8,2,6,1,,0.00,7,Rain,54
2013-10-15,77,65,53,63,58,54,100,85,54,30.22,30.11,29.99,10,7,0,5,1,,0.00,3,Fog,156
2013-10-16,68,64,60,63,62,59,94,92,78,30.01,29.97,29.94,10,8,2,8,2,,0.00,7,Rain,221
2013-10-17,62,58,53,61,54,50,100,93,88,30.01,29.93,29.85,10,7,1,8,2,,0.00,8,Rain,248
2013-10-18,66,54,41,50,44,39,100,78,37,30.10,30.04,29.99,10,8,1,8,2,,0.00,1,,229
2013-10-19,55,46,37,52,43,37,100,91,82,30.04,29.95,29.84,10,9,4,10,1,,0.00,4,Rain,246
2013-10-20,62,48,33,43,38,34,100,75,34,30.12,30.07,30.04,10,10,7,10,2,,0.00,0,,213
2013-10-21,69,51,33,48,39,34,100,70,28,30.10,30.02,29.93,10,10,10,12,2,16,0.00,1,,220
2013-10-22,55,48,42,46,38,28,93,68,36,30.07,29.97,29.89,10,10,4,8,2,,0.00,4,Rain,252
2013-10-23,44,40,37,41,39,36,100,86,76,30.05,29.89,29.77,10,9,2,8,2,,0.00,8,Rain,307
2013-10-24,48,42,35,37,34,30,93,78,53,30.25,30.13,30.04,10,10,10,10,5,18,0.00,8,Rain,246
2013-10-25,51,42,32,34,32,30,100,79,47,30.44,30.36,30.25,10,9,3,9,1,,0.00,5,,250
2013-10-26,55,42,30,34,30,27,100,65,36,30.33,30.15,29.98,10,10,10,16,4,24,0.00,4,,226
2013-10-27,60,46,33,37,35,32,93,68,36,30.13,30.09,30.05,10,10,10,8,2,,0.00,0,,239
2013-10-28,66,50,33,43,38,34,100,76,37,30.30,30.22,30.13,10,9,0,7,0,,0.00,2,Fog,227
2013-10-29,64,50,35,50,43,34,100,76,52,30.38,30.31,30.26,10,10,7,5,0,,0.00,1,,250
2013-10-30,64,57,50,59,55,46,100,92,82,30.25,30.18,30.10,10,6,2,4,0,,0.00,8,Rain,175
2013-10-31,71,64,57,61,57,54,100,76,53,30.09,29.86,29.49,10,9,2,13,4,22,0.00,6,Rain,186